Terminal Aerodrome Forecast
Issued by NWS Caribou, ME

Home | Current Version | Previous Version | Text Only | Print | Product List | Glossary On
Versions: 1 2 3 4 5 6 7 8 9 10 11 12 13 14 15 16 17 18 19 20 21 22 23 24 25 26 27 28 29 30 31
476
FTUS41 KCAR 100310 AAB
TAFBGR
TAF AMD
KBGR 100310Z 1003/1024 33012G22KT P6SM BKN040
     FM101200 31007KT P6SM SCT025
     FM101300 31007KT P6SM SCT200
     FM101500 31010G22KT P6SM SCT150
     FM101900 31010KT P6SM FEW150=

USA.gov is the U.S. government's official web portal to all federal, state and local government web resources and services.